Flag for Germany Weather past 2 weeks in Tübingen, Baden-Württemberg, Germany

Now
50 °F

Clear.


Feels Like: 49 °F
Forecast: 42 / 66 °F
Wind: 3 mph from Northwest

Location: Stuttgart-Echterdingen

Current Time: Aug 23, 2014 at 4:50:17 AM

Latest Report: Aug 23, 2014 at 4:20 AM


Visibility: 10 mi

Pressure: 29.98 "Hg

Humidity: 82%

Dew point: 45 °F

Location of TübingenLocation

Historic Weather in Tübingen — Graph

°F

Tübingen temperature yesterday

Maximum temperature yesterday: 68 °F (at 4:20 PM)
Minimum temperature yesterday: 48 °F (at 4:20 AM)
Average temperature yesterday: 58 °F

Past Weeks' High & Low Weather Summary

 TemperatureHumidityPressure
High82 °F (Aug 10, 5:20 PM)100% (Aug 8, 3:20 AM)30.18 "Hg (Aug 8, 3:20 AM)
Low48 °F (Aug 21, 6:50 AM)38% (Aug 22, 4:20 PM)29.68 "Hg (Aug 13, 1:20 PM)
Average62 °F71%29.96 "Hg
* Reported Aug 8 3:20 AM — Aug 23 3:50 AM, Tübingen, Weather by CustomWeather, © 2014

Note: Actual official high and low records may vary slightly from our data, if they occured in-between our weather recording intervals... More about our weather records

Advertising

Tübingen weather history for previous 24 hours

 ConditionsComfort  
Time TempWeatherWind HumidityBarometerVisibility
3:50 AM
Aug 23
54 °FClear.1 mph77%29.98 "Hg10 mi
2:50 AM54 °FClear.7 mph77%29.98 "Hg10 mi
2:20 AM54 °FClear.8 mph77%29.98 "Hg10 mi
1:50 AM54 °FClear.1 mph77%29.98 "Hg10 mi
1:20 AM54 °FClear.1 mph77%29.98 "Hg10 mi
12:50 AM52 °FClear.1 mph82%30.01 "Hg10 mi
12:20 AM52 °FClear.1 mph77%29.98 "Hg10 mi
11:50 PM
Aug 22
52 °FClear.2 mph77%30.01 "Hg10 mi
11:20 PM52 °FClear.3 mph77%30.01 "Hg10 mi
10:50 PM55 °FPassing clouds.6 mph72%30.01 "HgN/A
10:20 PM59 °FClear.5 mph63%30.01 "Hg10 mi
9:50 PM59 °FClear.5 mph63%30.01 "Hg10 mi
9:20 PM61 °FSunny.3 mph59%29.98 "Hg10 mi
8:50 PM63 °FSunny.2 mph52%29.98 "Hg10 mi
8:20 PM64 °FSunny.2 mph52%29.98 "Hg10 mi
7:50 PM64 °FSunny.5 mph49%29.95 "Hg10 mi
7:20 PM64 °FSunny.5 mph49%29.95 "Hg10 mi
6:50 PM66 °FSunny.5 mph46%29.95 "Hg10 mi
6:20 PM68 °FSunny.8 mph40%29.98 "Hg10 mi
5:50 PM66 °FSunny.7 mph46%29.98 "Hg10 mi
5:20 PM68 °FPassing clouds.5 mph40%29.98 "HgN/A
4:50 PM68 °FPassing clouds.8 mph46%29.98 "HgN/A
4:20 PM68 °FSunny.12 mph38%29.98 "Hg10 mi
3:50 PM66 °FSunny.10 mph49%29.98 "Hg10 mi
3:20 PM66 °FSunny.10 mph52%29.98 "Hg10 mi
2:50 PM66 °FSunny.8 mph46%29.98 "Hg10 mi
2:20 PM66 °FSunny.5 mph49%30.01 "Hg10 mi
1:50 PM64 °FSunny.6 mph52%30.01 "Hg10 mi
1:20 PM64 °FSunny.5 mph43%30.01 "Hg10 mi
12:50 PM64 °FSunny.7 mph46%30.01 "Hg10 mi
12:20 PM64 °FSunny.3 mph46%30.01 "Hg10 mi
11:50 AM66 °FBroken clouds.5 mph46%30.01 "HgN/A
11:20 AM63 °FPartly sunny.5 mph59%30.04 "HgN/A
10:50 AM61 °FSunny.5 mph63%30.04 "Hg10 mi
10:20 AM59 °FSunny.2 mph77%30.04 "Hg10 mi
9:50 AM57 °FSunny.2 mph72%30.04 "Hg10 mi
9:20 AM55 °FSunny.2 mph77%30.01 "Hg10 mi
8:50 AM54 °FSunny.2 mph82%30.01 "Hg10 mi
8:20 AM52 °FSunny.2 mph88%30.01 "Hg10 mi
7:50 AM50 °FBroken clouds.1 mph94%30.01 "HgN/A
7:20 AM50 °FPartly cloudy.1 mph94%30.01 "HgN/A
6:50 AM48 °FClear.2 mph94%30.01 "Hg10 mi
6:20 AM48 °FClear.1 mph94%30.01 "Hg10 mi
5:50 AM50 °FClear.1 mph88%30.01 "Hg10 mi
5:20 AM50 °FClear.2 mph88%30.01 "Hg10 mi
4:20 AM48 °FClear.1 mph94%30.04 "Hg10 mi
Weather by CustomWeather, © 2014

See weather overviewHow to use our weather pages